Regional Weather Roundup
Issued by NWS

Home | Current Version | Previous Version | Graphics & Text | Print | Product List | Glossary On
Versions: 1 2 3 4 5 6 7 8 9 10 11 12 13 14 15 16 17 18 19 20 21 22 23 24 25 26 27 28 29 30 31 32 33 34 35 36 37 38 39 40 41 42 43 44 45 46 47 48 49 50
000
ASUS43 KFSD 290610
RWRSD

WEATHER ROUNDUP FOR SOUTH DAKOTA
NATIONAL WEATHER SERVICE SIOUX FALLS SD
100 AM CDT TUE JUL 29 2014

NOTE: "FAIR" INDICATES FEW OR NO CLOUDS BELOW 12,000 FEET WITH NO
SIGNIFICANT WEATHER AND/OR OBSTRUCTIONS TO VISIBILITY.


SDZ001>005-009-010-012>017-290700-
NORTHWEST AND NORTH CENTRAL SOUTH DAKOTA

CITY           SKY/WX    TMP DP  RH WIND       PRES   REMARKS
BUFFALO          N/A     62  52  69 SE9       30.21R
FAITH            N/A     59  51  75 SE10      30.26S
MOBRIDGE       CLEAR     59  50  72 E8        30.22R
$$

SDZ012>016-024>037-041>051-057-063-072>074-290700-
SOUTHWEST AND SOUTH CENTRAL SOUTH DAKOTA

CITY           SKY/WX    TMP DP  RH WIND       PRES   REMARKS
RAPID CTY ARPT CLEAR     59  51  75 E6        30.28S
PIERRE         CLEAR     58  52  80 CALM      30.22S
CUSTER         CLEAR     58  48  69 NE5       30.37F
ELLSWORTH AFB  CLEAR     64  52  65 SW5       30.28R
PHILIP         CLEAR     57  49  74 NE6       30.24S
PINE RIDGE     CLEAR     62  53  72 E8        30.25F
WINNER         FAIR      59  50  72 SE8       30.25S
$$

SDZ004>011-016>023-039-040-290700-
NORTHEAST SOUTH DAKOTA

CITY           SKY/WX    TMP DP  RH WIND       PRES   REMARKS
ABERDEEN       CLEAR     50  49  96 CALM      30.23S
WATERTOWN      CLEAR     55  51  86 CALM      30.23S
SISSETON         N/A     54  52  93 NW3       30.20S
$$

SDZ017-020-022-023-036>040-048>070-290700-
SOUTHEAST SOUTH DAKOTA

CITY           SKY/WX    TMP DP  RH WIND       PRES   REMARKS
SIOUX FALLS    CLEAR     56  54  93 CALM      30.22S
HURON          CLEAR     53  50  89 CALM      30.22S
CHAMBERLAIN    CLEAR     58  51  77 CALM      30.24S
MITCHELL       CLEAR     60  54  80 CALM      30.23S
YANKTON        CLEAR     59  54  82 NE3       30.22S
$$

ABBREVIATIONS USED IN REMARKS
   TC - TEMPERATURE IN CELSIUS
  WCI - WIND CHILL INDEX
   HX - HEAT INDEX
  VSB - VISIBILITY



USA.gov is the U.S. government's official web portal to all federal, state and local government web resources and services.